Location: Saratoga Springs
(43.0831°N, 73.7850°W)
Time: 22:00:13
(UTC-04:00)

Vanguard 2 Rocket - Pass Details

Date: 19 April 2024
Orbit: 556 x 3304 km, 32.9° (Epoch: 21 May)

Event Time Altitude Azimuth Distance (km) Brightness Sun altitude
Rises 20:37:45 0° 209° (SSW) 5,740 11.0 -10.1°
Reaches altitude 10° 20:41:40 10° 199° (SSW) 5,090 10.6 -10.7°
Maximum altitude 20:55:09 34° 142° (SE) 4,294 9.8 -12.9°
Drops below altitude 10° 21:11:37 10° 88° (E) 6,245 10.7 -15.4°
Sets 21:17:02 0° 81° (E) 7,166 11.0 -16.3°
